Location: Tierz
(42.1336°N, 0.3549°W)
Time: 17:46:17
(UTC+00:00)

Cosmos 2058 Rocket - Pass Details

Date: 29 October 2020
Orbit: 610 x 640 km, 82.5° (Epoch: 03 December)

Event Time Altitude Azimuth Distance (km) Brightness Sun altitude
Rises 18:16:00 0° 200° (SSW) 2,915 6.9 -14.9°
Reaches altitude 10° 18:18:17 10° 206° (SSW) 2,015 6.1 -15.3°
Maximum altitude 18:22:38 50° 281° (W) 821 4.1 -16.1°
Drops below altitude 10° 18:27:02 10° 357° (N) 2,040 5.7 -16.9°
Sets 18:29:22 0° 3° (N) 2,955 6.5 -17.3°
